Previsão horária em Senkino

Hoje, 30 Julho, Sexta-feira

Tempo Temperatura Precipitação Vento Pressão Humidade
00:00 +15°C° 0.8 mm 2 m/s 741 mmHg 96%
01:00 +16°C° 0.8 mm 1 m/s 741 mmHg 98%
02:00 +15°C° 0 mm 2 m/s 741 mmHg 98%
03:00 +15°C° 0 mm 2 m/s 740 mmHg 98%
04:00 +15°C° 0 mm 2 m/s 740 mmHg 98%
05:00 +15°C° 0.3 mm 2 m/s 740 mmHg 98%
06:00 +16°C° 0.3 mm 2 m/s 739 mmHg 98%
07:00 +16°C° 0.3 mm 3 m/s 739 mmHg 98%
08:00 +16°C° 1.6 mm 3 m/s 739 mmHg 98%
09:00 +17°C° 1.6 mm 4 m/s 738 mmHg 98%
10:00 +17°C° 1.6 mm 4 m/s 737 mmHg 98%
11:00 +18°C° 0.6 mm 4 m/s 738 mmHg 96%
12:00 +18°C° 0.6 mm 4 m/s 738 mmHg 95%
13:00 +19°C° 0.6 mm 4 m/s 738 mmHg 94%
14:00 +19°C° 0.5 mm 4 m/s 738 mmHg 94%
15:00 +20°C° 0.5 mm 3 m/s 738 mmHg 93%
16:00 +20°C° 0.5 mm 3 m/s 738 mmHg 93%
17:00 +20°C° 0.3 mm 3 m/s 738 mmHg 92%
18:00 +20°C° 0.3 mm 3 m/s 739 mmHg 92%
19:00 +20°C° 0.3 mm 3 m/s 739 mmHg 91%
20:00 +19°C° 0.2 mm 2 m/s 739 mmHg 93%
21:00 +17°C° 0.2 mm 2 m/s 739 mmHg 95%
22:00 +16°C° 0.2 mm 1 m/s 740 mmHg 96%
23:00 +16°C° 0 mm 1 m/s 740 mmHg 97%

Amanhã, 31 Julho, Sábado

Tempo Temperatura Precipitação Vento Pressão Humidade
00:00 +16°C° 0 mm 1 m/s 740 mmHg 97%
01:00 +15°C° 0 mm 1 m/s 740 mmHg 97%
02:00 +15°C° 0 mm 1 m/s 741 mmHg 97%
03:00 +15°C° 0 mm 1 m/s 741 mmHg 98%
04:00 +14°C° 0 mm 1 m/s 741 mmHg 98%
05:00 +15°C° 0 mm 1 m/s 741 mmHg 97%
06:00 +16°C° 0 mm 1 m/s 742 mmHg 96%
07:00 +16°C° 0 mm 0 m/s 742 mmHg 95%
08:00 +19°C° 0 mm 1 m/s 742 mmHg 89%
09:00 +20°C° 0 mm 1 m/s 742 mmHg 83%
10:00 +21°C° 0 mm 2 m/s 742 mmHg 77%
11:00 +20°C° 0.4 mm 2 m/s 741 mmHg 82%
12:00 +20°C° 0.4 mm 2 m/s 741 mmHg 87%
13:00 +19°C° 0.4 mm 2 m/s 741 mmHg 93%
14:00 +19°C° 1.2 mm 2 m/s 741 mmHg 94%
15:00 +18°C° 1.2 mm 3 m/s 741 mmHg 96%
16:00 +18°C° 1.2 mm 3 m/s 741 mmHg 97%
17:00 +19°C° 0.1 mm 3 m/s 740 mmHg 97%
18:00 +19°C° 0.1 mm 3 m/s 740 mmHg 97%
19:00 +20°C° 0.1 mm 3 m/s 740 mmHg 96%
20:00 +19°C° 0.1 mm 2 m/s 740 mmHg 97%
21:00 +19°C° 0.1 mm 2 m/s 740 mmHg 98%
22:00 +18°C° 0.1 mm 2 m/s 740 mmHg 98%
23:00 +18°C° 0.1 mm 2 m/s 740 mmHg 98%

Depois de amanhã, 1 Agosto, Domingo

Tempo Temperatura Precipitação Vento Pressão Humidade
00:00 +18°C° 0.1 mm 2 m/s 740 mmHg 98%
01:00 +18°C° 0.1 mm 2 m/s 740 mmHg 98%
02:00 +17°C° 0 mm 2 m/s 740 mmHg 98%
03:00 +17°C° 0 mm 2 m/s 740 mmHg 98%
04:00 +17°C° 0 mm 2 m/s 740 mmHg 98%
05:00 +17°C° 0 mm 2 m/s 740 mmHg 97%
06:00 +18°C° 0 mm 2 m/s 741 mmHg 96%
07:00 +18°C° 0 mm 2 m/s 741 mmHg 95%
08:00 +19°C° 0.5 mm 3 m/s 741 mmHg 90%
09:00 +20°C° 0.5 mm 3 m/s 741 mmHg 86%
10:00 +22°C° 0.5 mm 3 m/s 741 mmHg 82%
11:00 +22°C° 0.3 mm 4 m/s 741 mmHg 72%
12:00 +23°C° 0.3 mm 4 m/s 742 mmHg 63%
13:00 +25°C° 0.3 mm 4 m/s 742 mmHg 54%
14:00 +23°C° 0.1 mm 5 m/s 742 mmHg 56%
15:00 +23°C° 0.1 mm 5 m/s 742 mmHg 58%
16:00 +23°C° 0.1 mm 5 m/s 742 mmHg 60%
17:00 +22°C° 0.1 mm 5 m/s 743 mmHg 65%
18:00 +21°C° 0.1 mm 4 m/s 743 mmHg 70%
19:00 +20°C° 0.1 mm 4 m/s 743 mmHg 75%
20:00 +18°C° 0 mm 3 m/s 744 mmHg 80%
21:00 +17°C° 0 mm 3 m/s 744 mmHg 85%
22:00 +16°C° 0 mm 2 m/s 744 mmHg 90%
23:00 +15°C° 0 mm 2 m/s 744 mmHg 92%

2 Agosto, Segunda-feira

Tempo Temperatura Precipitação Vento Pressão Humidade
00:00 +15°C° 0 mm 2 m/s 745 mmHg 94%
01:00 +14°C° 0 mm 2 m/s 745 mmHg 96%
02:00 +14°C° 0 mm 2 m/s 745 mmHg 96%
03:00 +13°C° 0 mm 2 m/s 746 mmHg 96%
04:00 +13°C° 0 mm 1 m/s 746 mmHg 96%
05:00 +14°C° 0 mm 2 m/s 746 mmHg 91%
06:00 +16°C° 0 mm 2 m/s 747 mmHg 86%
07:00 +17°C° 0 mm 2 m/s 747 mmHg 81%
08:00 +19°C° 0 mm 2 m/s 747 mmHg 73%
09:00 +20°C° 0 mm 2 m/s 747 mmHg 66%
10:00 +23°C° 0 mm 2 m/s 747 mmHg 58%
11:00 +24°C° 0 mm 2 m/s 747 mmHg 55%
12:00 +25°C° 0 mm 3 m/s 747 mmHg 53%
13:00 +26°C° 0 mm 3 m/s 747 mmHg 50%
14:00 +25°C° 0 mm 3 m/s 747 mmHg 55%
15:00 +25°C° 0 mm 3 m/s 747 mmHg 60%
16:00 +23°C° 0 mm 4 m/s 747 mmHg 65%
17:00 +22°C° 0 mm 3 m/s 747 mmHg 71%
18:00 +21°C° 0 mm 2 m/s 746 mmHg 78%
19:00 +21°C° 0 mm 2 m/s 746 mmHg 84%
20:00 +20°C° 0 mm 2 m/s 746 mmHg 87%
21:00 +19°C° 0 mm 2 m/s 746 mmHg 90%
22:00 +18°C° 0 mm 2 m/s 746 mmHg 93%
23:00 +18°C° 0 mm 2 m/s 746 mmHg 94%

3 Agosto, Terça-feira

Tempo Temperatura Precipitação Vento Pressão Humidade
00:00 +18°C° 0 mm 2 m/s 746 mmHg 94%
01:00 +17°C° 0 mm 2 m/s 746 mmHg 95%
02:00 +18°C° 0 mm 1 m/s 746 mmHg 95%
03:00 +16°C° 0 mm 1 m/s 746 mmHg 96%
04:00 +16°C° 0 mm 1 m/s 746 mmHg 96%
05:00 +18°C° 0.1 mm 1 m/s 746 mmHg 94%
06:00 +19°C° 0.1 mm 1 m/s 746 mmHg 92%
07:00 +20°C° 0.1 mm 2 m/s 746 mmHg 89%
08:00 +21°C° 0.3 mm 2 m/s 746 mmHg 83%
09:00 +24°C° 0.3 mm 3 m/s 746 mmHg 77%
10:00 +25°C° 0.3 mm 3 m/s 746 mmHg 71%
11:00 +25°C° 0 mm 3 m/s 746 mmHg 74%
12:00 +24°C° 0 mm 3 m/s 746 mmHg 76%
13:00 +22°C° 0 mm 3 m/s 745 mmHg 79%
14:00 +25°C° 0 mm 3 m/s 745 mmHg 71%
15:00 +27°C° 0 mm 4 m/s 745 mmHg 64%
16:00 +29°C° 0 mm 4 m/s 745 mmHg 57%
17:00 +28°C° 0 mm 3 m/s 745 mmHg 64%
18:00 +27°C° 0 mm 3 m/s 744 mmHg 71%
19:00 +25°C° 0 mm 2 m/s 744 mmHg 79%
20:00 +24°C° 0 mm 2 m/s 744 mmHg 82%
21:00 +23°C° 0 mm 2 m/s 744 mmHg 86%
22:00 +21°C° 0 mm 2 m/s 744 mmHg 90%
23:00 +20°C° 0 mm 2 m/s 745 mmHg 91%

4 Agosto, Quarta-feira

Tempo Temperatura Precipitação Vento Pressão Humidade
00:00 +21°C° 0 mm 1 m/s 745 mmHg 91%
01:00 +20°C° 0 mm 1 m/s 745 mmHg 92%
02:00 +20°C° 0 mm 1 m/s 745 mmHg 92%
03:00 +19°C° 0 mm 1 m/s 745 mmHg 93%
04:00 +18°C° 0 mm 2 m/s 746 mmHg 93%
05:00 +20°C° 0 mm 1 m/s 746 mmHg 88%
06:00 +21°C° 0 mm 1 m/s 746 mmHg 83%
07:00 +22°C° 0 mm 1 m/s 746 mmHg 78%
08:00 +23°C° 0 mm 2 m/s 747 mmHg 73%
09:00 +25°C° 0 mm 2 m/s 747 mmHg 68%
10:00 +26°C° 0 mm 2 m/s 747 mmHg 63%
11:00 +27°C° 0 mm 2 m/s 747 mmHg 60%
12:00 +28°C° 0 mm 2 m/s 747 mmHg 56%
13:00 +29°C° 0 mm 1 m/s 747 mmHg 52%
14:00 +29°C° 0 mm 2 m/s 747 mmHg 51%
15:00 +29°C° 0 mm 2 m/s 747 mmHg 50%
16:00 +29°C° 0 mm 2 m/s 747 mmHg 49%
17:00 +28°C° 0 mm 2 m/s 747 mmHg 57%
18:00 +26°C° 0 mm 2 m/s 748 mmHg 65%
19:00 +25°C° 0 mm 1 m/s 748 mmHg 73%
20:00 +23°C° 0 mm 1 m/s 748 mmHg 76%
21:00 +22°C° 0 mm 1 m/s 748 mmHg 80%
22:00 +20°C° 0 mm 1 m/s 748 mmHg 83%
23:00 +20°C° 0.6 mm 1 m/s 748 mmHg 87%
Mostrar mais

Necessitamos do seu Consentimento

A Meteoprog e os seus Fornecedores de Serviços podem armazenar e aceder a dados pessoais como cookies, identificadores do dispositivo ou outras tecnologias semelhantes existentes no seu dispositivo e processar estes dados para personalizar conteúdos e anúncios, assim como funcionalidades nas redes sociais e análise de tráfego.

  • Armazenar e/ou aceder a informações no seu dispositivo

    Os cookies, identificadores do dispositivo ou outras informações podem ser armazenados ou acedidos no seu dispositivo, para os fins acima indicados.

  • Anúncios e conteúdos personalizados, medição de anúncios e conteúdos, dados sobre o público-alvo e desenvolvimento de produtos

    Os anúncios e os conteúdos podem ser personalizados com base num perfil. Podem ser adicionados dados adicionais para uma maior personalização dos anúncios e dos conteúdos. A eficácia dos anúncios e dos conteúdos pode ser medida. Podem ser obtidas informações sobre o público que visualizou os anúncios e os conteúdos. Estes dados podem ser usados para desenvolver ou melhorar sistemas, softwares ou a experiência do utilizador.

Ao clicar em "Eu concordo”, permitirá o uso de cookies, identificadores do dispositivo e web beacons mencionados ou outras tecnologias semelhantes. As configurações do navegador do seu dispositivo podem ser alteradas.

Para certos fins, podem ser invocados interesses legítimos ao invés de consentimento. Pode ler mais informação sobre este assunto na nossa Política de Privacidade e Cookies.